User: anonymous   Login
Location: Boston
(42.3580°N, 71.0600°W)
Time: 10:33:35
(UTC-04:00)
Language:

YUBILEINY - Orbit

View from above orbital plane
View from above orbital plane
View from above satellite
View from above satellite

Ground track
Ground track

The orbit data is extracted from the following two-line orbital elements,

1 32953U 08025A   18230.09275716  .00000033  00000-0  16162-3 0  9993
2 32953  82.5066 334.1788 0020009  76.8732 283.4579 12.43085085464467
Epoch (UTC): 18 August 2018 02:13:34
Eccentricity: 0.0020009
inclination: 82.5066°
perigee height: 1478 km
apogee height: 1509 km
right ascension of ascending node: 334.1788°
argument of perigee: 76.8732°
revolutions per day: 12.43085085
mean anomaly at epoch: 283.4579°
orbit number at epoch: 46446

The dashed part of the orbit path shows where the satellite is in the earth's shadow,  

DLR